Time,TemperatureF,DewpointF,PressureIn,WindDirection,WindDirectionDegrees,WindSpeedMPH,WindSpeedGustMPH,Humidity,HourlyPrecipIn,Conditions,Clouds,dailyrainin,SoftwareType,DateUTC
2013-03-09 00:09:00,39.0,38.0,30.01,ESE,112,0.0,-999.0,96,-99.99,,,0.00,Acu-Link.com,2013-03-09 06:09:00,
2013-03-09 00:24:00,39.4,38.9,30.00,ESE,112,0.0,-999.0,98,-99.99,,,0.00,Acu-Link.com,2013-03-09 06:24:00,
2013-03-09 00:39:00,39.9,38.6,30.01,ESE,112,0.0,-999.0,95,-99.99,,,0.00,Acu-Link.com,2013-03-09 06:39:00,
2013-03-09 00:55:00,40.6,39.0,29.99,ESE,112,0.0,-999.0,94,-99.99,,,0.00,Acu-Link.com,2013-03-09 06:55:00,
2013-03-09 01:10:00,40.8,38.9,29.98,ESE,112,0.0,-999.0,93,-99.99,,,0.00,Acu-Link.com,2013-03-09 07:10:00,
2013-03-09 01:25:00,41.0,39.4,29.97,ESE,112,7.8,-999.0,94,-99.99,,,0.00,Acu-Link.com,2013-03-09 07:25:00,
2013-03-09 01:40:00,41.2,39.3,29.97,ESE,112,5.8,-999.0,93,-99.99,,,0.00,Acu-Link.com,2013-03-09 07:40:00,
2013-03-09 01:55:00,41.7,39.6,29.97,ESE,112,0.0,-999.0,92,-99.99,,,0.00,Acu-Link.com,2013-03-09 07:55:00,
2013-03-09 02:10:00,42.1,39.4,29.97,ESE,112,0.0,-999.0,90,-99.99,,,0.00,Acu-Link.com,2013-03-09 08:10:00,
2013-03-09 02:25:00,42.1,39.7,29.96,SE,135,0.0,-999.0,91,-99.99,,,0.00,Acu-Link.com,2013-03-09 08:25:00,
2013-03-09 02:40:00,41.9,39.5,29.95,ESE,112,0.0,-999.0,91,-99.99,,,0.00,Acu-Link.com,2013-03-09 08:40:00,
2013-03-09 02:55:00,41.5,39.1,29.94,SE,135,6.8,-999.0,91,-99.99,,,0.00,Acu-Link.com,2013-03-09 08:55:00,
2013-03-09 03:11:00,41.4,39.0,29.95,ESE,112,0.0,-999.0,91,-99.99,,,0.00,Acu-Link.com,2013-03-09 09:11:00,
2013-03-09 03:26:00,41.0,38.9,29.95,SE,135,0.0,-999.0,92,-99.99,,,0.00,Acu-Link.com,2013-03-09 09:26:00,
2013-03-09 03:41:00,41.2,39.3,29.94,ESE,112,0.0,-999.0,93,-99.99,,,0.00,Acu-Link.com,2013-03-09 09:41:00,
2013-03-09 03:56:00,41.0,39.4,29.96,SE,135,0.0,-999.0,94,-99.99,,,0.00,Acu-Link.com,2013-03-09 09:56:00,
2013-03-09 04:11:00,40.8,39.5,29.94,ESE,112,0.0,-999.0,95,-99.99,,,0.00,Acu-Link.com,2013-03-09 10:11:00,
2013-03-09 04:26:00,40.6,39.0,29.95,ESE,112,0.0,-999.0,94,-99.99,,,0.00,Acu-Link.com,2013-03-09 10:26:00,
2013-03-09 04:42:00,40.6,39.3,29.95,SE,135,5.3,-999.0,95,-99.99,,,0.00,Acu-Link.com,2013-03-09 10:42:00,
2013-03-09 04:57:00,40.6,39.3,29.94,ESE,112,0.0,-999.0,95,-99.99,,,0.00,Acu-Link.com,2013-03-09 10:57:00,
2013-03-09 05:12:00,40.6,39.0,29.94,East,90,8.3,-999.0,94,-99.99,,,0.00,Acu-Link.com,2013-03-09 11:12:00,
2013-03-09 05:27:00,40.5,39.5,29.94,SE,135,4.7,-999.0,96,-99.99,,,0.00,Acu-Link.com,2013-03-09 11:27:00,
2013-03-09 05:42:00,39.9,39.1,29.94,ESE,112,4.7,-999.0,97,-99.99,,,0.00,Acu-Link.com,2013-03-09 11:42:00,
2013-03-09 05:57:00,40.1,39.3,29.95,ESE,112,0.0,-999.0,97,-99.99,,,0.00,Acu-Link.com,2013-03-09 11:57:00,
2013-03-09 06:12:00,39.4,38.9,29.96,ESE,112,5.3,-999.0,98,-99.99,,,0.00,Acu-Link.com,2013-03-09 12:12:00,
2013-03-09 06:27:00,39.0,38.7,29.93,ESE,112,0.0,-999.0,99,-99.99,,,0.00,Acu-Link.com,2013-03-09 12:27:00,
2013-03-09 06:42:00,41.0,39.9,29.94,ESE,112,0.0,-999.0,96,-99.99,,,0.00,Acu-Link.com,2013-03-09 12:42:00,
2013-03-09 06:57:00,42.6,41.0,29.94,ESE,112,7.3,-999.0,94,-99.99,,,0.00,Acu-Link.com,2013-03-09 12:57:00,
2013-03-09 07:13:00,42.6,40.7,29.93,ESE,112,7.3,-999.0,93,-99.99,,,0.00,Acu-Link.com,2013-03-09 13:13:00,
2013-03-09 07:28:00,43.9,41.2,29.95,ESE,112,0.0,-999.0,90,-99.99,,,0.00,Acu-Link.com,2013-03-09 13:28:00,
2013-03-09 07:43:00,44.6,41.9,29.95,SE,135,0.0,-999.0,90,-99.99,,,0.00,Acu-Link.com,2013-03-09 13:43:00,
2013-03-09 07:58:00,45.3,42.0,29.96,SSE,157,6.3,-999.0,88,-99.99,,,0.00,Acu-Link.com,2013-03-09 13:58:00,
2013-03-09 08:13:00,45.9,42.8,29.96,SSE,157,0.0,-999.0,89,-99.99,,,0.00,Acu-Link.com,2013-03-09 14:13:00,
2013-03-09 08:28:00,47.5,43.2,29.96,SSE,157,0.0,-999.0,85,-99.99,,,0.00,Acu-Link.com,2013-03-09 14:28:00,
2013-03-09 08:43:00,48.0,43.1,29.95,SE,135,0.0,-999.0,83,-99.99,,,0.00,Acu-Link.com,2013-03-09 14:43:00,
2013-03-09 08:58:00,47.8,42.9,29.94,SE,135,6.8,-999.0,83,-99.99,,,0.00,Acu-Link.com,2013-03-09 14:58:00,
2013-03-09 09:13:00,48.9,43.7,29.95,SSE,157,6.3,-999.0,82,-99.99,,,0.00,Acu-Link.com,2013-03-09 15:13:00,
2013-03-09 09:29:00,50.5,43.9,29.96,South,180,4.7,-999.0,78,-99.99,,,0.00,Acu-Link.com,2013-03-09 15:29:00,
2013-03-09 09:44:00,51.6,44.6,29.95,SSE,157,0.0,-999.0,77,-99.99,,,0.00,Acu-Link.com,2013-03-09 15:44:00,
2013-03-09 09:59:00,51.6,44.3,29.95,SSE,157,4.2,-999.0,76,-99.99,,,0.00,Acu-Link.com,2013-03-09 15:59:00,
2013-03-09 10:14:00,52.7,45.0,29.94,ESE,112,6.3,-999.0,75,-99.99,,,0.00,Acu-Link.com,2013-03-09 16:14:00,
2013-03-09 10:29:00,53.4,44.6,29.93,SE,135,0.0,-999.0,72,-99.99,,,0.00,Acu-Link.com,2013-03-09 16:29:00,
2013-03-09 10:44:00,54.0,44.1,29.93,SE,135,6.8,-999.0,69,-99.99,,,0.00,Acu-Link.com,2013-03-09 16:44:00,
2013-03-09 10:59:00,56.3,44.3,29.93,SE,135,8.3,-999.0,64,-99.99,,,0.00,Acu-Link.com,2013-03-09 16:59:00,
2013-03-09 11:14:00,55.9,45.1,29.92,SSE,157,7.3,-999.0,67,-99.99,,,0.00,Acu-Link.com,2013-03-09 17:14:00,
2013-03-09 11:29:00,57.0,45.4,29.92,SE,135,6.8,-999.0,65,-99.99,,,0.00,Acu-Link.com,2013-03-09 17:29:00,
2013-03-09 11:45:00,55.8,44.2,29.91,SSE,157,7.8,-999.0,65,-99.99,,,0.00,Acu-Link.com,2013-03-09 17:45:00,
2013-03-09 12:00:00,55.0,45.8,29.90,SE,135,0.0,-999.0,71,-99.99,,,0.00,Acu-Link.com,2013-03-09 18:00:00,
2013-03-09 12:15:00,54.9,45.3,29.90,SE,135,7.3,-999.0,70,-99.99,,,0.00,Acu-Link.com,2013-03-09 18:15:00,
2013-03-09 12:30:00,55.8,45.8,29.88,SSE,157,7.8,-999.0,69,-99.99,,,0.00,Acu-Link.com,2013-03-09 18:30:00,
2013-03-09 12:45:00,56.3,45.9,29.86,SE,135,8.3,-999.0,68,-99.99,,,0.00,Acu-Link.com,2013-03-09 18:45:00,
2013-03-09 13:00:00,57.2,46.7,29.86,SE,135,8.3,-999.0,68,-99.99,,,0.00,Acu-Link.com,2013-03-09 19:00:00,
2013-03-09 13:15:00,58.1,45.6,29.86,SSW,202,6.8,-999.0,63,-99.99,,,0.00,Acu-Link.com,2013-03-09 19:15:00,
2013-03-09 13:30:00,58.6,45.2,29.85,SSE,157,6.3,-999.0,61,-99.99,,,0.00,Acu-Link.com,2013-03-09 19:30:00,
2013-03-09 13:45:00,59.9,47.3,29.84,SE,135,7.3,-999.0,63,-99.99,,,0.00,Acu-Link.com,2013-03-09 19:45:00,
2013-03-09 14:01:00,61.0,49.6,29.83,SE,135,6.3,-999.0,66,-99.99,,,0.00,Acu-Link.com,2013-03-09 20:01:00,
2013-03-09 14:16:00,61.7,47.7,29.83,SE,135,7.3,-999.0,60,-99.99,,,0.00,Acu-Link.com,2013-03-09 20:16:00,
2013-03-09 14:31:00,62.4,47.9,29.83,ESE,112,6.3,-999.0,59,-99.99,,,0.00,Acu-Link.com,2013-03-09 20:31:00,
2013-03-09 14:46:00,61.9,47.9,29.82,SE,135,6.8,-999.0,60,-99.99,,,0.00,Acu-Link.com,2013-03-09 20:46:00,
2013-03-09 15:01:00,61.5,47.0,29.82,SSE,157,8.3,-999.0,59,-99.99,,,0.00,Acu-Link.com,2013-03-09 21:01:00,
2013-03-09 15:16:00,62.2,48.1,29.80,ESE,112,9.4,-999.0,60,-99.99,,,0.00,Acu-Link.com,2013-03-09 21:16:00,
2013-03-09 15:31:00,61.9,47.9,29.80,ESE,112,7.8,-999.0,60,-99.99,,,0.00,Acu-Link.com,2013-03-09 21:31:00,
2013-03-09 15:46:00,62.8,48.7,29.80,ESE,112,8.3,-999.0,60,-99.99,,,0.00,Acu-Link.com,2013-03-09 21:46:00,
2013-03-09 16:02:00,63.9,49.3,29.79,SE,135,6.8,-999.0,59,-99.99,,,0.00,Acu-Link.com,2013-03-09 22:02:00,
2013-03-09 16:17:00,62.2,49.4,29.79,ESE,112,6.3,-999.0,63,-99.99,,,0.00,Acu-Link.com,2013-03-09 22:17:00,
2013-03-09 16:32:00,62.8,45.9,29.78,SSE,157,8.3,-999.0,54,-99.99,,,0.00,Acu-Link.com,2013-03-09 22:32:00,
2013-03-09 16:47:00,62.4,45.5,29.78,SSE,157,0.0,-999.0,54,-99.99,,,0.00,Acu-Link.com,2013-03-09 22:47:00,
2013-03-09 17:02:00,61.0,47.5,29.78,SE,135,0.0,-999.0,61,-99.99,,,0.00,Acu-Link.com,2013-03-09 23:02:00,
2013-03-09 17:17:00,61.0,47.9,29.78,SE,135,0.0,-999.0,62,-99.99,,,0.00,Acu-Link.com,2013-03-09 23:17:00,
2013-03-09 17:32:00,59.9,47.7,29.77,ESE,112,0.0,-999.0,64,-99.99,,,0.00,Acu-Link.com,2013-03-09 23:32:00,
2013-03-09 17:47:00,58.6,47.3,29.77,SE,135,0.0,-999.0,66,-99.99,,,0.00,Acu-Link.com,2013-03-09 23:47:00,
2013-03-09 18:02:00,56.8,46.4,29.77,SE,135,0.0,-999.0,68,-99.99,,,0.00,Acu-Link.com,2013-03-10 00:02:00,
2013-03-09 18:17:00,56.3,46.3,29.77,SE,135,0.0,-999.0,69,-99.99,,,0.00,Acu-Link.com,2013-03-10 00:17:00,
2013-03-09 18:33:00,56.3,46.6,29.77,SE,135,0.0,-999.0,70,-99.99,,,0.00,Acu-Link.com,2013-03-10 00:33:00,
2013-03-09 18:48:00,55.6,46.0,29.78,SE,135,0.0,-999.0,70,-99.99,,,0.00,Acu-Link.com,2013-03-10 00:48:00,
2013-03-09 19:03:00,56.5,45.7,29.77,SSE,157,0.0,-999.0,67,-99.99,,,0.00,Acu-Link.com,2013-03-10 01:03:00,
2013-03-09 19:18:00,57.2,45.5,29.77,SE,135,4.7,-999.0,65,-99.99,,,0.00,Acu-Link.com,2013-03-10 01:18:00,
2013-03-09 19:33:00,57.0,45.8,29.76,SE,135,4.2,-999.0,66,-99.99,,,0.00,Acu-Link.com,2013-03-10 01:33:00,
2013-03-09 19:48:00,57.7,45.6,29.76,SE,135,7.3,-999.0,64,-99.99,,,0.00,Acu-Link.com,2013-03-10 01:48:00,
2013-03-09 20:03:00,57.7,46.0,29.76,SE,135,7.8,-999.0,65,-99.99,,,0.00,Acu-Link.com,2013-03-10 02:03:00,
2013-03-09 20:18:00,57.6,46.3,29.75,SE,135,6.8,-999.0,66,-99.99,,,0.00,Acu-Link.com,2013-03-10 02:18:00,
2013-03-09 20:33:00,57.4,46.5,29.76,SSE,157,6.3,-999.0,67,-99.99,,,0.00,Acu-Link.com,2013-03-10 02:33:00,
2013-03-09 20:49:00,56.8,46.7,29.76,SE,135,0.0,-999.0,69,-99.99,,,0.00,Acu-Link.com,2013-03-10 02:49:00,
2013-03-09 21:04:00,56.5,46.8,29.77,SE,135,0.0,-999.0,70,-99.99,,,0.00,Acu-Link.com,2013-03-10 03:04:00,
2013-03-09 21:19:00,56.7,47.0,29.76,SE,135,5.8,-999.0,70,-99.99,,,0.00,Acu-Link.com,2013-03-10 03:19:00,
2013-03-09 21:34:00,56.7,47.0,29.76,SE,135,0.0,-999.0,70,-99.99,,,0.00,Acu-Link.com,2013-03-10 03:34:00,
2013-03-09 21:49:00,56.8,47.1,29.75,SSE,157,4.2,-999.0,70,-99.99,,,0.00,Acu-Link.com,2013-03-10 03:49:00,
2013-03-09 22:04:00,56.8,47.1,29.76,SSE,157,5.8,-999.0,70,-99.99,,,0.00,Acu-Link.com,2013-03-10 04:04:00,
2013-03-09 22:19:00,56.3,47.4,29.75,SE,135,6.3,-999.0,72,-99.99,,,0.00,Acu-Link.com,2013-03-10 04:19:00,
2013-03-09 22:34:00,55.8,47.3,29.74,SSE,157,0.0,-999.0,73,-99.99,,,0.00,Acu-Link.com,2013-03-10 04:34:00,
2013-03-09 22:49:00,54.9,46.8,29.75,SE,135,5.8,-999.0,74,-99.99,,,0.00,Acu-Link.com,2013-03-10 04:49:00,
2013-03-09 23:05:00,53.8,46.4,29.74,SSE,157,3.2,-999.0,76,-99.99,,,0.00,Acu-Link.com,2013-03-10 05:05:00,
2013-03-09 23:20:00,52.7,46.4,29.74,SSE,157,3.7,-999.0,79,-99.99,,,0.00,Acu-Link.com,2013-03-10 05:20:00,
2013-03-09 23:35:00,52.2,45.9,29.74,SSE,157,0.0,-999.0,79,-99.99,,,0.00,Acu-Link.com,2013-03-10 05:35:00,
2013-03-09 23:50:00,51.4,45.8,29.73,SSE,157,0.0,-999.0,81,-99.99,,,0.00,Acu-Link.com,2013-03-10 05:50:00,